EW2796 Camano Island WA US current weather conditions

sailwx.info

Wind from 308 at 9 knots gusting 14

Air temperature 17.8° C
Dewpoint 14.7° C

Last reported at 2020-Aug-06 00:55 UTC.
Time now 2020-Aug-06 01:22 UTC

Location: N 48°09' W 122°31'.
View on Google Maps.

See reports from other nearby stations

  
Tides and Currents Weather Stations Pressure Air Temp Water Temp Dewpoint Dewpoint Depression Visibility Wind Speed Wind Dir Waves Ship Positions
date/time (UTC)wind fromknots sea level pressurealtimeterstation pressurevisibilityair tempwater tempwave heightnotes
2020-Aug-06 00:55 308 9 gusting 14 17.8
2020-Aug-06 00:50 305 10 gusting 14 17.8
2020-Aug-06 00:45 308 9 gusting 12 17.8
2020-Aug-06 00:40 309 9 gusting 13 17.8
2020-Aug-06 00:35 309 10 gusting 13 17.8
2020-Aug-06 00:30 307 10 gusting 13 17.8
2020-Aug-06 00:25 305 10 gusting 13 17.8
2020-Aug-06 00:20 306 9 gusting 13 18.3
2020-Aug-06 00:15 315 10 gusting 13 18.3
2020-Aug-06 00:10 317 11 gusting 13 18.3
2020-Aug-06 00:05 313 10 gusting 14 18.3
2020-Aug-06 00:00 306 10 gusting 14 18.3
2020-Aug-05 23:55 308 8 gusting 13 18.3
2020-Aug-05 23:50 335 6 gusting 10 18.9
2020-Aug-05 23:45 358 6 gusting 9 18.9
2020-Aug-05 23:40 358 6 gusting 8 18.9
2020-Aug-05 23:35 356 7 gusting 10 18.9
2020-Aug-05 23:30 356 8 gusting 10 18.3
2020-Aug-05 23:25 353 8 gusting 10 18.3
2020-Aug-05 23:20 352 9 gusting 11 18.3
2020-Aug-05 23:15 352 9 gusting 11 18.3
2020-Aug-05 23:10 349 8 gusting 11 18.3
2020-Aug-05 23:05 349 8 gusting 12 18.3
2020-Aug-05 23:00 351 9 gusting 12 18.3
2020-Aug-05 22:55 349 8 gusting 11 18.3
2020-Aug-05 22:50 347 9 gusting 12 18.3
2020-Aug-05 22:45 349 10 gusting 12 18.3
2020-Aug-05 22:40 348 10 gusting 13 18.9
2020-Aug-05 22:35 347 11 gusting 13 18.9
2020-Aug-05 22:30 345 12 gusting 13 18.3
2020-Aug-05 22:25 343 11 gusting 13 18.3
2020-Aug-05 22:20 340 11 gusting 13 17.8
2020-Aug-05 22:15 338 10 gusting 12 17.8
2020-Aug-05 22:10 340 10 gusting 12 17.8
2020-Aug-05 22:05 340 10 gusting 12 17.8
2020-Aug-05 22:00 341 10 gusting 12 17.8
2020-Aug-05 21:55 342 11 gusting 13 17.8
2020-Aug-05 21:50 343 10 gusting 13 17.8
2020-Aug-05 21:45 342 10 gusting 13 17.8
2020-Aug-05 21:40 342 11 gusting 13 17.8
2020-Aug-05 21:35 344 11 gusting 13 17.8
2020-Aug-05 21:30 344 10 gusting 13 17.8
2020-Aug-05 21:25 343 10 gusting 13 17.8
2020-Aug-05 21:20 343 9 gusting 13 17.8
2020-Aug-05 21:15 342 9 gusting 13 17.8
2020-Aug-05 21:10 337 9 gusting 13 17.8
2020-Aug-05 21:05 334 9 gusting 12 17.8
2020-Aug-05 21:00 340 9 gusting 12 17.8
2020-Aug-05 20:55 340 9 gusting 12 17.8
2020-Aug-05 20:50 333 8 gusting 11 17.2
2020-Aug-05 20:45 331 8 gusting 10 17.2
2020-Aug-05 20:40 335 8 gusting 10 17.2
2020-Aug-05 20:35 339 7 gusting 10 17.2
2020-Aug-05 20:25 333 8 gusting 10 17.2
2020-Aug-05 20:20 332 7 gusting 10 17.2
2020-Aug-05 20:15 332 7 gusting 10 17.2
2020-Aug-05 20:10 327 7 gusting 10 16.7
2020-Aug-05 20:05 325 7 gusting 9 16.7
2020-Aug-05 20:00 327 7 gusting 9 16.7
2020-Aug-05 19:55 331 7 gusting 10 16.7
2020-Aug-05 19:50 334 7 gusting 10 16.7
2020-Aug-05 19:45 334 6 gusting 9 16.7
2020-Aug-05 19:40 335 7 gusting 9 16.7
2020-Aug-05 19:35 338 7 gusting 9 16.7
2020-Aug-05 19:30 337 7 gusting 9 16.7
2020-Aug-05 19:25 335 7 gusting 9 16.7
2020-Aug-05 19:20 336 7 gusting 9 16.7
2020-Aug-05 19:15 337 7 gusting 10 16.7
2020-Aug-05 19:10 335 8 gusting 10 16.1
2020-Aug-05 19:05 339 8 gusting 10 16.1
2020-Aug-05 19:00 343 8 gusting 10 16.1
2020-Aug-05 18:55 345 8 gusting 10 16.1
2020-Aug-05 18:50 346 8 gusting 10 16.7
2020-Aug-05 18:45 346 7 gusting 10 16.1
2020-Aug-05 18:40 346 7 gusting 10 16.1
2020-Aug-05 18:35 344 7 gusting 9 16.1
2020-Aug-05 18:30 341 7 gusting 8 15.6
2020-Aug-05 18:25 340 7 gusting 9 15.6
2020-Aug-05 18:20 340 6 gusting 9 15.6
2020-Aug-05 18:15 339 6 gusting 8 15.6
2020-Aug-05 18:10 339 5 gusting 7 15.6
2020-Aug-05 18:05 343 6 gusting 7 15.6
2020-Aug-05 18:00 347 6 gusting 8 15.6
2020-Aug-05 17:50 353 6 gusting 8 15.6
2020-Aug-05 17:45 353 6 gusting 9 15.6
2020-Aug-05 17:40 353 7 gusting 9 15.6
2020-Aug-05 17:35 354 6 gusting 8 15.6
2020-Aug-05 17:30 354 6 gusting 8 15.6
2020-Aug-05 17:25 355 6 gusting 8 15.6
2020-Aug-05 17:20 355 6 gusting 8 15.6
2020-Aug-05 17:15 355 7 gusting 8 15.6
2020-Aug-05 17:10 356 6 gusting 8 15.6
2020-Aug-05 17:05 356 6 gusting 8 15.6
2020-Aug-05 17:00 350 6 gusting 8 15.6
2020-Aug-05 16:55 339 6 gusting 8 15.0
2020-Aug-05 16:50 330 7 gusting 8 15.0
2020-Aug-05 16:45 323 7 gusting 10 15.0
2020-Aug-05 16:40 319 8 gusting 12 14.4
2020-Aug-05 16:35 321 9 gusting 12 14.4
2020-Aug-05 16:30 334 9 gusting 12 14.4
2020-Aug-05 16:25 350 9 gusting 11 14.4
2020-Aug-05 16:20 355 9 gusting 11 14.4
2020-Aug-05 16:15 354 9 gusting 11 14.4
2020-Aug-05 16:10 353 8 gusting 11 14.4
2020-Aug-05 16:05 354 8 gusting 10 13.9
2020-Aug-05 16:00 355 7 gusting 10 13.9
2020-Aug-05 15:55 356 7 gusting 9 13.9
2020-Aug-05 15:50 356 7 gusting 9 13.9
2020-Aug-05 15:45 355 6 gusting 9 13.3
2020-Aug-05 15:40 001 6 gusting 9 13.3
2020-Aug-05 15:35 008 6 gusting 9 13.3
2020-Aug-05 15:30 007 7 gusting 10 12.8
2020-Aug-05 15:25 003 8 gusting 11 12.8
2020-Aug-05 15:20 358 9 gusting 11 12.8
2020-Aug-05 15:15 356 9 gusting 11 12.8
2020-Aug-05 15:10 353 9 gusting 11 12.2
2020-Aug-05 15:05 351 9 gusting 11 12.8
2020-Aug-05 15:00 351 9 gusting 12 12.2
2020-Aug-05 14:55 348 10 gusting 12 12.2
2020-Aug-05 14:50 345 10 gusting 12 12.2
2020-Aug-05 14:45 344 9 gusting 11 12.2
2020-Aug-05 14:40 348 7 gusting 10 12.2
2020-Aug-05 14:35 354 7 gusting 9 12.2
2020-Aug-05 14:30 357 6 gusting 9 12.2
2020-Aug-05 14:25 003 6 gusting 9 12.2
2020-Aug-05 14:20 005 6 gusting 9 12.2
2020-Aug-05 14:15 002 6 gusting 9 12.2
2020-Aug-05 14:10 359 6 gusting 8 12.2
2020-Aug-05 14:05 356 6 gusting 8 12.2
2020-Aug-05 14:00 356 6 gusting 7 12.2
2020-Aug-05 13:55 352 6 gusting 7 12.8
2020-Aug-05 13:50 352 6 gusting 7 12.8
2020-Aug-05 13:45 353 6 gusting 8 12.8
2020-Aug-05 13:40 352 5 gusting 8 12.8
2020-Aug-05 13:35 355 4 gusting 6 12.8
2020-Aug-05 13:30 358 3 gusting 6 12.8
2020-Aug-05 13:25 003 3 gusting 6 12.8
2020-Aug-05 13:20 002 3 gusting 5 12.8
2020-Aug-05 13:15 003 3 gusting 5 12.8
2020-Aug-05 13:10 005 3 gusting 6 12.8
2020-Aug-05 13:05 004 2 gusting 6 12.8
2020-Aug-05 13:00 010 2 gusting 4 12.8
2020-Aug-05 12:55 008 2 gusting 4 12.8
2020-Aug-05 12:50 358 3 gusting 4 12.8
2020-Aug-05 12:45 357 3 gusting 6 12.8
2020-Aug-05 12:40 004 4 gusting 6 12.8
2020-Aug-05 12:35 006 3 gusting 6 12.8
2020-Aug-05 12:30 024 1 gusting 5 12.8
2020-Aug-05 12:25 059 0 gusting 1 12.8
2020-Aug-05 12:20 059 0 gusting 1 12.8
2020-Aug-05 12:15 060 0 gusting 1 12.8
2020-Aug-05 12:10 059 0 gusting 2 12.8
2020-Aug-05 12:05 055 0 gusting 2 13.3
2020-Aug-05 12:00 038 0 gusting 2 13.3
2020-Aug-05 11:55 011 1 gusting 2 13.3
2020-Aug-05 11:50 008 1 gusting 3 13.3
2020-Aug-05 11:45 017 2 gusting 4 13.3
2020-Aug-05 11:40 006 3 gusting 6 13.3
2020-Aug-05 11:35 357 4 gusting 6 13.3
2020-Aug-05 11:30 357 4 gusting 6 13.9
2020-Aug-05 11:25 356 4 gusting 6 13.9
2020-Aug-05 11:20 358 5 gusting 6 13.9
2020-Aug-05 11:15 003 5 gusting 7 13.9
2020-Aug-05 11:10 005 6 gusting 7 13.9
2020-Aug-05 11:05 004 6 gusting 9 13.9
2020-Aug-05 11:00 003 6 gusting 9 13.9
2020-Aug-05 10:55 358 7 gusting 11 13.9
2020-Aug-05 10:50 355 8 gusting 12 13.9
2020-Aug-05 10:45 354 9 gusting 12 13.9
2020-Aug-05 10:40 353 10 gusting 12 13.9
2020-Aug-05 10:35 353 10 gusting 13 14.4
2020-Aug-05 10:30 354 10 gusting 13 14.4
2020-Aug-05 10:25 355 10 gusting 13 14.4
2020-Aug-05 10:20 355 9 gusting 12 14.4
2020-Aug-05 10:15 358 9 gusting 12 14.4
2020-Aug-05 10:10 005 8 gusting 11 14.4
2020-Aug-05 10:05 007 8 gusting 11 14.4
2020-Aug-05 10:00 009 8 gusting 11 15.0
2020-Aug-05 09:55 011 7 gusting 11 15.0
2020-Aug-05 09:50 011 7 gusting 11 15.0
2020-Aug-05 09:45 011 6 gusting 11 15.0
2020-Aug-05 09:40 008 6 gusting 10 15.0
2020-Aug-05 09:35 005 7 gusting 13 15.0
2020-Aug-05 09:30 003 8 gusting 13 15.6
2020-Aug-05 09:25 006 7 gusting 11 15.6
2020-Aug-05 09:20 009 6 gusting 9 15.6
2020-Aug-05 09:15 011 6 gusting 9 15.6
2020-Aug-05 09:10 007 7 gusting 12 15.6
2020-Aug-05 09:05 007 8 gusting 12 15.6
2020-Aug-05 09:00 008 7 gusting 11 15.6
2020-Aug-05 08:55 004 7 gusting 11 15.6
2020-Aug-05 08:50 358 8 gusting 10 15.6
2020-Aug-05 08:45 359 7 gusting 11 16.1
2020-Aug-05 08:40 006 7 gusting 11 16.1
2020-Aug-05 08:35 008 7 gusting 12 16.1
2020-Aug-05 08:30 008 7 gusting 12 16.1
2020-Aug-05 08:25 006 8 gusting 13 16.1
2020-Aug-05 08:20 003 8 gusting 13 16.1
2020-Aug-05 08:15 003 9 gusting 12 16.1
2020-Aug-05 08:10 006 9 gusting 14 16.7
2020-Aug-05 08:05 008 9 gusting 14 16.7
2020-Aug-05 08:00 009 8 gusting 12 16.7
2020-Aug-05 07:55 009 8 gusting 12 16.7
2020-Aug-05 07:50 009 8 gusting 12 16.7
2020-Aug-05 07:45 008 8 gusting 12 16.7
2020-Aug-05 07:40 005 8 gusting 12 16.7
2020-Aug-05 07:35 008 7 gusting 10 16.7
2020-Aug-05 07:30 009 7 gusting 12 16.7
2020-Aug-05 07:25 009 7 gusting 12 16.7
2020-Aug-05 07:20 010 7 gusting 12 16.7
2020-Aug-05 07:15 009 7 gusting 12 16.7
2020-Aug-05 07:10 008 7 gusting 12 16.7
2020-Aug-05 07:05 008 7 gusting 11 16.7
2020-Aug-05 07:00 010 7 gusting 11 16.7
2020-Aug-05 06:55 012 7 gusting 11 17.2
2020-Aug-05 06:50 010 6 gusting 10 17.2
2020-Aug-05 06:45 013 6 gusting 10 16.7
2020-Aug-05 06:40 016 7 gusting 10 17.2
2020-Aug-05 06:35 014 7 gusting 10 17.2
2020-Aug-05 06:30 013 7 gusting 11 16.7
2020-Aug-05 06:25 010 7 gusting 12 16.7
2020-Aug-05 06:20 006 8 gusting 12 16.7
2020-Aug-05 06:15 001 8 gusting 12 16.7
2020-Aug-05 06:10 359 8 gusting 12 17.2
2020-Aug-05 06:05 359 8 gusting 12 17.2
2020-Aug-05 06:00 358 8 gusting 11 17.2
2020-Aug-05 05:55 002 9 gusting 13 17.2
2020-Aug-05 05:50 359 9 gusting 13 17.2
2020-Aug-05 05:45 357 8 gusting 13 17.2
2020-Aug-05 05:40 003 7 gusting 11 17.2
2020-Aug-05 05:35 006 7 gusting 10 17.2
2020-Aug-05 05:30 005 8 gusting 12 17.2
2020-Aug-05 05:25 004 8 gusting 12 17.2
2020-Aug-05 05:20 004 8 gusting 11 17.2
2020-Aug-05 05:15 002 8 gusting 12 17.8
2020-Aug-05 05:10 001 8 gusting 12 17.8
2020-Aug-05 05:05 003 8 gusting 11 17.8
2020-Aug-05 04:55 004 7 gusting 12 17.8
2020-Aug-05 04:50 004 7 gusting 12 17.8
2020-Aug-05 04:45 003 7 gusting 12 17.8
2020-Aug-05 04:40 359 7 gusting 11 17.8
2020-Aug-05 04:35 355 7 gusting 10 17.8
2020-Aug-05 04:30 357 8 gusting 11 17.8
2020-Aug-05 04:25 001 7 gusting 11 17.8
2020-Aug-05 04:20 004 7 gusting 11 17.8
2020-Aug-05 04:15 006 7 gusting 11 17.8
2020-Aug-05 04:10 002 7 gusting 11 17.8
2020-Aug-05 04:05 358 7 gusting 11 17.8
2020-Aug-05 04:00 358 8 gusting 11 17.8
2020-Aug-05 03:55 357 7 gusting 11 17.8
2020-Aug-05 03:50 356 7 gusting 10 18.3
2020-Aug-05 03:45 358 7 gusting 10 18.3
2020-Aug-05 03:40 359 7 gusting 10 18.3
2020-Aug-05 03:35 358 8 gusting 10 18.3
2020-Aug-05 03:30 357 7 gusting 10 18.3
2020-Aug-05 03:25 355 7 gusting 9 18.3
2020-Aug-05 03:20 357 7 gusting 10 18.3
2020-Aug-05 03:15 356 6 gusting 10 18.3
2020-Aug-05 03:10 353 6 gusting 9 18.9
2020-Aug-05 03:05 354 7 gusting 9 18.9
2020-Aug-05 03:00 354 6 gusting 9 18.9
2020-Aug-05 02:55 355 6 gusting 8 18.9
2020-Aug-05 02:50 355 7 gusting 9 18.9
2020-Aug-05 02:45 353 8 gusting 11 18.3
2020-Aug-05 02:40 352 10 gusting 12 18.3
2020-Aug-05 02:30 350 11 gusting 13 18.3
2020-Aug-05 02:25 349 12 gusting 14 18.3
2020-Aug-05 02:20 347 12 gusting 14 18.3
2020-Aug-05 02:15 345 12 gusting 14 18.3
2020-Aug-05 02:10 342 11 gusting 14 18.3
2020-Aug-05 02:05 343 9 gusting 13 18.3
2020-Aug-05 02:00 349 8 gusting 12 18.9
2020-Aug-05 01:55 350 7 gusting 10 18.9
2020-Aug-05 01:50 335 7 gusting 11 18.9
2020-Aug-05 01:45 323 7 gusting 11 18.9
2020-Aug-05 01:40 314 6 gusting 10 18.9
2020-Aug-05 01:35 313 6 gusting 10 18.9
2020-Aug-05 01:30 333 3 gusting 7 19.4
2020-Aug-05 01:25 351 2 gusting 6 19.4
2020-Aug-05 01:20 304 5 gusting 8 19.4
2020-Aug-05 01:15 288 5 gusting 8 18.9
2020-Aug-05 01:10 291 5 gusting 8 19.4
2020-Aug-05 01:05 307 7 gusting 9 20.0
2020-Aug-05 01:00 316 7 gusting 9 20.6
2020-Aug-05 00:55 318 6 gusting 9 21.1
2020-Aug-05 00:50 324 6 gusting 9 21.1
2020-Aug-05 00:45 332 4 gusting 11 21.7
2020-Aug-05 00:40 326 5 gusting 11 21.7
2020-Aug-05 00:35 318 6 gusting 9 21.1
2020-Aug-05 00:30 319 7 gusting 11 21.7
2020-Aug-05 00:25 310 6 gusting 12 21.7
2020-Aug-05 00:20 305 6 gusting 12 21.1
2020-Aug-05 00:15 311 7 gusting 10 20.6
2020-Aug-05 00:10 308 8 gusting 13 21.1
2020-Aug-05 00:05 312 8 gusting 13 21.1
2020-Aug-05 00:00 316 8 gusting 10 21.1
2020-Aug-04 23:55 317 7 gusting 10 21.1
2020-Aug-04 23:50 323 7 gusting 9 21.1
2020-Aug-04 23:45 325 6 gusting 9 21.7
2020-Aug-04 23:40 320 6 gusting 9 21.7
2020-Aug-04 23:35 313 6 gusting 9 21.7
2020-Aug-04 23:25 315 6 gusting 8 21.7
2020-Aug-04 23:20 328 5 gusting 9 21.7
2020-Aug-04 23:15 338 4 gusting 9 21.7
2020-Aug-04 23:10 335 3 gusting 9 21.7
2020-Aug-04 23:05 324 4 gusting 8 21.1
2020-Aug-04 23:00 319 4 gusting 8 21.1
2020-Aug-04 22:55 313 3 gusting 8 21.1
2020-Aug-04 22:50 335 5 gusting 8 21.1
2020-Aug-04 22:45 357 6 gusting 8 22.2
2020-Aug-04 22:40 003 6 gusting 8 22.2
2020-Aug-04 22:35 006 6 gusting 8 22.2
2020-Aug-04 22:30 007 6 gusting 8 22.2
2020-Aug-04 22:25 004 6 gusting 8 22.2
2020-Aug-04 22:20 001 7 gusting 9 22.2
2020-Aug-04 22:15 359 7 gusting 9 22.2
2020-Aug-04 22:10 358 5 gusting 9 21.7
2020-Aug-04 22:05 346 3 gusting 9 21.1
2020-Aug-04 22:00 329 2 gusting 4 20.0
2020-Aug-04 21:55 314 2 gusting 6 20.0
2020-Aug-04 21:50 307 1 gusting 6 19.4
2020-Aug-04 21:45 304 19.4
2020-Aug-04 21:40 20.0
2020-Aug-04 21:35 310 0 gusting 6 20.0
2020-Aug-04 21:30 311 2 gusting 6 20.0
2020-Aug-04 21:25 317 6 gusting 9 20.0
2020-Aug-04 21:20 336 7 gusting 10 20.6
2020-Aug-04 21:15 345 7 gusting 10 21.1
2020-Aug-04 21:10 344 7 gusting 9 20.6
2020-Aug-04 21:05 330 6 gusting 9 20.0
2020-Aug-04 21:00 309 6 gusting 7 18.9
2020-Aug-04 20:55 323 6 gusting 8 19.4
2020-Aug-04 20:50 334 6 gusting 8 20.0
2020-Aug-04 20:45 336 7 gusting 8 19.4
2020-Aug-04 20:40 343 8 gusting 10 20.0
2020-Aug-04 20:35 347 8 gusting 10 20.6
2020-Aug-04 20:30 349 8 gusting 10 20.6
2020-Aug-04 20:25 351 8 gusting 10 20.6
2020-Aug-04 20:20 355 8 gusting 11 20.6
2020-Aug-04 20:15 359 8 gusting 11 21.1
2020-Aug-04 20:10 005 8 gusting 10 20.6
2020-Aug-04 20:05 008 9 gusting 10 20.6
2020-Aug-04 20:00 010 8 gusting 11 20.6
2020-Aug-04 19:55 010 8 gusting 11 20.0
2020-Aug-04 19:50 004 8 gusting 10 20.0
2020-Aug-04 19:45 357 9 gusting 12 20.0
2020-Aug-04 19:40 355 10 gusting 12 19.4
2020-Aug-04 19:35 353 11 gusting 13 19.4
2020-Aug-04 19:30 350 11 gusting 13 19.4
2020-Aug-04 19:25 347 10 gusting 12 19.4
2020-Aug-04 19:20 344 9 gusting 12 19.4
2020-Aug-04 19:15 345 8 gusting 11 19.4
2020-Aug-04 19:10 345 7 gusting 10 18.9
2020-Aug-04 19:05 347 7 gusting 10 19.4
2020-Aug-04 19:00 350 8 gusting 12 19.4
2020-Aug-04 18:55 352 8 gusting 12 18.9
2020-Aug-04 18:50 351 7 gusting 11 18.9
2020-Aug-04 18:45 349 7 gusting 10 18.9
2020-Aug-04 18:40 350 7 gusting 11 18.9
2020-Aug-04 18:35 341 6 gusting 11 18.3
2020-Aug-04 18:30 309 3 gusting 9 17.8
2020-Aug-04 18:25 282 3 gusting 5 18.3
2020-Aug-04 18:20 290 4 gusting 6 17.8
2020-Aug-04 18:15 300 4 gusting 6 17.8
2020-Aug-04 18:10 336 3 gusting 6 18.3
2020-Aug-04 18:05 009 4 gusting 6 18.3
2020-Aug-04 18:00 015 4 gusting 6 17.8
2020-Aug-04 17:55 008 3 gusting 6 17.8
2020-Aug-04 17:50 357 2 gusting 4 17.2
2020-Aug-04 17:45 351 2 gusting 3 16.7
2020-Aug-04 17:40 350 1 gusting 3 16.7
2020-Aug-04 17:35 327 1 gusting 2 16.7
2020-Aug-04 17:30 289 1 gusting 2 16.7
2020-Aug-04 17:25 277 0 gusting 1 16.7
2020-Aug-04 17:20 277 0 gusting 1 16.7
2020-Aug-04 17:15 283 0 gusting 2 16.7
2020-Aug-04 17:10 299 0 gusting 2 16.7
2020-Aug-04 17:05 318 0 gusting 1 16.7
2020-Aug-04 17:00 326 0 gusting 1 16.1
2020-Aug-04 16:55 335 1 gusting 3 16.1
2020-Aug-04 16:50 338 2 gusting 3 16.1
2020-Aug-04 16:45 342 2 gusting 3 16.1
2020-Aug-04 16:40 340 2 gusting 3 16.1
2020-Aug-04 16:35 317 2 gusting 3 16.1
2020-Aug-04 16:30 310 2 gusting 3 16.1
2020-Aug-04 16:25 325 1 gusting 3 15.6
2020-Aug-04 16:20 327 1 gusting 2 16.1
2020-Aug-04 16:15 326 1 gusting 3 15.6
2020-Aug-04 16:10 335 1 gusting 3 15.6
2020-Aug-04 16:05 338 2 gusting 3 15.6
2020-Aug-04 16:00 359 2 gusting 3 15.6
2020-Aug-04 15:55 013 2 gusting 3 15.6
2020-Aug-04 15:50 357 2 gusting 4 15.6
2020-Aug-04 15:45 358 2 gusting 4 15.6
2020-Aug-04 15:40 359 3 gusting 4 15.6
2020-Aug-04 15:35 353 3 gusting 4 15.6
2020-Aug-04 15:30 356 2 gusting 4 15.6
2020-Aug-04 15:25 004 1 gusting 3 15.6
2020-Aug-04 15:20 356 1 gusting 3 15.6
2020-Aug-04 15:15 348 3 gusting 4 15.0
2020-Aug-04 15:10 345 3 gusting 4 15.0
2020-Aug-04 15:05 347 3 gusting 4 15.0
2020-Aug-04 14:55 355 2 gusting 4 15.0
2020-Aug-04 14:50 359 2 gusting 4 15.0
2020-Aug-04 14:45 357 2 gusting 3 15.0
2020-Aug-04 14:40 357 1 gusting 2 15.0
2020-Aug-04 14:35 009 1 gusting 4 15.0
2020-Aug-04 14:30 014 2 gusting 4 15.0
2020-Aug-04 14:25 017 2 gusting 4 15.0
2020-Aug-04 14:20 012 2 gusting 4 15.0
2020-Aug-04 14:15 005 3 gusting 6 15.0
2020-Aug-04 14:10 006 3 gusting 6 15.0
2020-Aug-04 14:05 004 4 gusting 6 15.0
2020-Aug-04 13:55 002 2 gusting 6 15.0
2020-Aug-04 13:50 002 2 gusting 5 15.0
2020-Aug-04 13:45 006 2 gusting 5 15.0
2020-Aug-04 13:40 005 3 gusting 5 15.0
2020-Aug-04 13:35 004 3 gusting 5 15.0
2020-Aug-04 13:30 356 2 gusting 4 14.4
2020-Aug-04 13:25 351 2 gusting 3 14.4
2020-Aug-04 13:20 352 1 gusting 3 14.4
2020-Aug-04 13:15 001 2 gusting 4 14.4
2020-Aug-04 13:10 014 2 gusting 4 14.4
2020-Aug-04 13:05 019 2 gusting 4 14.4
2020-Aug-04 13:00 018 1 gusting 4 14.4
2020-Aug-04 12:55 015 1 gusting 3 14.4
2020-Aug-04 12:50 014 1 gusting 3 14.4
2020-Aug-04 12:45 011 2 gusting 4 14.4
2020-Aug-04 12:40 010 2 gusting 6 14.4
2020-Aug-04 12:35 013 3 gusting 6 14.4
2020-Aug-04 12:30 011 3 gusting 6 14.4
2020-Aug-04 12:25 013 3 gusting 6 14.4
2020-Aug-04 12:20 020 2 gusting 6 14.4
2020-Aug-04 12:15 026 3 gusting 6 14.4
2020-Aug-04 12:10 021 3 gusting 7 14.4
2020-Aug-04 12:05 018 4 gusting 8 14.4
2020-Aug-04 12:00 020 4 gusting 8 14.4
2020-Aug-04 11:55 020 3 gusting 7 14.4
2020-Aug-04 11:50 014 3 gusting 7 14.4
2020-Aug-04 11:45 014 2 gusting 6 14.4
2020-Aug-04 11:40 025 2 gusting 6 14.4
2020-Aug-04 11:35 024 2 gusting 6 14.4
2020-Aug-04 11:30 019 2 gusting 6 14.4
2020-Aug-04 11:25 020 3 gusting 6 14.4
2020-Aug-04 11:20 020 4 gusting 8 14.4
2020-Aug-04 11:15 014 5 gusting 8 14.4
2020-Aug-04 11:10 009 5 gusting 8 14.4
2020-Aug-04 11:05 009 5 gusting 8 14.4
2020-Aug-04 11:00 014 4 gusting 7 14.4
2020-Aug-04 10:55 020 4 gusting 8 14.4
2020-Aug-04 10:50 015 5 gusting 8 14.4
2020-Aug-04 10:45 013 4 gusting 8 14.4
2020-Aug-04 10:40 014 4 gusting 6 14.4
2020-Aug-04 10:35 008 4 gusting 6 14.4
2020-Aug-04 10:30 002 5 gusting 7 14.4
2020-Aug-04 10:25 356 6 gusting 7 14.4
2020-Aug-04 10:20 349 6 gusting 8 14.4
2020-Aug-04 10:15 331 6 gusting 8 14.4
2020-Aug-04 10:10 316 6 gusting 7 14.4
2020-Aug-04 10:05 316 6 gusting 7 14.4
2020-Aug-04 10:00 317 6 gusting 7 14.4
2020-Aug-04 09:55 314 6 gusting 9 14.4
2020-Aug-04 09:50 308 7 gusting 9 14.4
2020-Aug-04 09:45 305 7 gusting 9 14.4
2020-Aug-04 09:40 297 7 gusting 8 14.4
2020-Aug-04 09:35 291 6 gusting 8 14.4
2020-Aug-04 09:30 305 6 gusting 8 15.0
2020-Aug-04 09:25 331 6 gusting 7 15.6
2020-Aug-04 09:20 347 5 gusting 6 15.6
2020-Aug-04 09:15 350 6 gusting 7 15.6
2020-Aug-04 09:10 348 6 gusting 8 15.6
2020-Aug-04 09:05 348 6 gusting 8 15.6
2020-Aug-04 09:00 350 6 gusting 7 15.6
2020-Aug-04 08:55 350 6 gusting 7 15.6
2020-Aug-04 08:50 350 6 gusting 8 15.6
2020-Aug-04 08:45 347 6 gusting 8 15.6
2020-Aug-04 08:40 343 5 gusting 8 16.1
2020-Aug-04 08:35 343 5 gusting 6 16.1
2020-Aug-04 08:30 342 4 gusting 6 16.1
2020-Aug-04 08:25 345 3 gusting 5 16.7
2020-Aug-04 08:20 356 3 gusting 6 16.7
2020-Aug-04 08:15 359 4 gusting 7 16.7
2020-Aug-04 08:10 359 5 gusting 7 16.7
2020-Aug-04 08:05 357 4 gusting 7 16.7
2020-Aug-04 08:00 353 4 gusting 8 16.7
2020-Aug-04 07:55 351 5 gusting 9 17.2
2020-Aug-04 07:50 352 5 gusting 9 17.2
2020-Aug-04 07:45 343 5 gusting 9 17.2
2020-Aug-04 07:40 342 6 gusting 9 17.2
2020-Aug-04 07:35 345 5 gusting 10 17.2
2020-Aug-04 07:30 347 5 gusting 10 17.2
2020-Aug-04 07:25 355 5 gusting 8 17.2
2020-Aug-04 07:20 358 5 gusting 8 17.2
2020-Aug-04 07:15 358 6 gusting 9 17.2
2020-Aug-04 07:10 004 6 gusting 11 17.2
2020-Aug-04 07:05 007 6 gusting 11 17.2
2020-Aug-04 07:00 002 6 gusting 9 17.2
2020-Aug-04 06:55 001 6 gusting 9 17.2
2020-Aug-04 06:50 002 6 gusting 9 17.2
2020-Aug-04 06:45 002 6 gusting 9 17.2
2020-Aug-04 06:40 001 6 gusting 10 17.2
2020-Aug-04 06:35 001 6 gusting 10 17.2
2020-Aug-04 06:30 004 6 gusting 9 17.2
2020-Aug-04 06:25 006 5 gusting 9 17.2
2020-Aug-04 06:20 003 5 gusting 8 17.2
2020-Aug-04 06:15 001 5 gusting 8 17.2
2020-Aug-04 06:10 356 5 gusting 9 17.2
2020-Aug-04 06:05 356 5 gusting 9 17.2
2020-Aug-04 06:00 358 4 gusting 8 17.2
2020-Aug-04 05:55 351 5 gusting 8 17.2
2020-Aug-04 05:50 349 6 gusting 10 17.2
2020-Aug-04 05:45 346 8 gusting 10 17.2
2020-Aug-04 05:40 343 7 gusting 10 17.2
2020-Aug-04 05:35 345 7 gusting 9 17.2
2020-Aug-04 05:30 347 6 gusting 8 17.2
2020-Aug-04 05:25 348 7 gusting 9 17.2
2020-Aug-04 05:20 349 7 gusting 9 17.2
2020-Aug-04 05:15 347 7 gusting 9 17.2
2020-Aug-04 05:10 346 6 gusting 8 17.2
2020-Aug-04 05:05 345 6 gusting 7 17.2
2020-Aug-04 05:00 345 6 gusting 8 17.8
2020-Aug-04 04:55 351 6 gusting 8 17.8
2020-Aug-04 04:50 351 6 gusting 9 17.8
2020-Aug-04 04:45 351 6 gusting 9 17.8
2020-Aug-04 04:40 353 6 gusting 8 17.8
2020-Aug-04 04:35 353 6 gusting 8 17.8
2020-Aug-04 04:30 356 6 gusting 8 17.8
2020-Aug-04 04:25 357 6 gusting 10 18.3
2020-Aug-04 04:20 354 7 gusting 10 18.3
2020-Aug-04 04:15 355 8 gusting 11 18.3
2020-Aug-04 04:10 356 7 gusting 11 18.3
2020-Aug-04 04:05 354 7 gusting 10 18.3
2020-Aug-04 04:00 353 8 gusting 10 18.3
2020-Aug-04 03:55 352 8 gusting 10 18.3
2020-Aug-04 03:50 353 8 gusting 11 18.9
2020-Aug-04 03:45 353 8 gusting 11 18.9
2020-Aug-04 03:40 352 9 gusting 11 18.9
2020-Aug-04 03:35 350 9 gusting 11 18.9
2020-Aug-04 03:30 348 10 gusting 11 18.9
2020-Aug-04 03:25 350 9 gusting 11 18.9
2020-Aug-04 03:20 352 8 gusting 11 18.9
2020-Aug-04 03:15 354 9 gusting 11 19.4
2020-Aug-04 03:10 354 10 gusting 13 19.4
2020-Aug-04 03:05 352 12 gusting 13 19.4
2020-Aug-04 03:00 352 13 gusting 15 19.4
2020-Aug-04 02:55 354 13 gusting 15 20.0
2020-Aug-04 02:50 352 13 gusting 15 20.0
2020-Aug-04 02:45 350 13 gusting 15 19.4
2020-Aug-04 02:40 349 12 gusting 13 20.0
2020-Aug-04 02:35 348 12 gusting 13 19.4
2020-Aug-04 02:30 351 12 gusting 13 20.0
2020-Aug-04 02:25 352 12 gusting 13 20.0
2020-Aug-04 02:20 351 12 gusting 13 20.0
2020-Aug-04 02:15 351 12 gusting 13 19.4
2020-Aug-04 02:10 350 12 gusting 13 19.4
2020-Aug-04 02:05 345 11 gusting 13 20.0
2020-Aug-04 02:00 340 10 gusting 12 19.4
2020-Aug-04 01:55 334 8 gusting 10 19.4
2020-Aug-04 01:50 317 6 gusting 10 19.4
2020-Aug-04 01:45 304 6 gusting 7 18.9
2020-Aug-04 01:40 302 6 gusting 8 19.4
2020-Aug-04 01:35 300 6 gusting 8 19.4
2020-Aug-04 01:30 312 5 gusting 7 19.4
2020-Aug-04 01:25 325 6 gusting 9 19.4
2020-Aug-04 01:20 319 8 gusting 10 19.4
2020-Aug-04 01:15 310 8 gusting 10 19.4
2020-Aug-04 01:10 310 9 gusting 12 20.0
2020-Aug-04 01:05 320 8 gusting 12 20.0
2020-Aug-04 01:00 335 6 gusting 12 20.6